Regional Weather Roundup
Issued by NWS Upton, NY

Current Version | Previous Version | Text Only | Print | Product List | Glossary On
Versions: 1 2 3 4 5 6 7 8 9 10 11 12 13 14 15 16 17 18 19 20 21 22 23 24 25 26 27 28 29 30 31 32 33 34 35 36 37 38 39 40 41 42 43 44 45 46 47 48 49 50
022 ASUS41 KOKX 222009 RWROKX REGIONAL WEATHER ROUNDUP NATIONAL WEATHER SERVICE NEW YORK NY 400 PM EDT SUN OCT 22 2017 NOTE: "FAIR" INDICATES FEW OR NO CLOUDS BELOW 12,000 FEET WITH NO SIGNIFICANT WEATHER AND/OR OBSTRUCTIONS TO VISIBILITY. NYZ071-072-176-178-NJZ106-104-222100- NEW YORK CITY METRO AREA CITY SKY/WX TMP DP RH WIND PRES REMARKS Central Park MOSUNNY 73 43 33 VRB5 30.38F Bronx Bot Gard N/A 73 43 33 SE7 30.37S LaGuardia APRT PTSUNNY 73 37 27 S10 30.36S Kennedy INTL PTSUNNY 68 54 60 S10 30.38F Breezy Point N/A 64 N/A N/A S9 N/A Newark/Liberty PTSUNNY 73 50 44 VRB7 30.35F Teterboro MOSUNNY 79 42 26 S10 30.34S $$ NYZ177-179-078>081-222100- LONG ISLAND NEW YORK CITY SKY/WX TMP DP RH WIND PRES REMARKS Jones Beach N/A 64 N/A N/A S7 N/A Matinecock PT N/A 73 N/A N/A SW5 N/A Farmingdale MOSUNNY 70 50 49 S9 30.37F MacArthur/ISP PTSUNNY 70 51 51 S7 30.37F Shirley MOSUNNY 72 54 53 S7 30.38S Mt Sinai Harb N/A N/A N/A N/A S5 N/A Westhampton CLOUDY 68 52 56 SW6 30.40S East Hampton FAIR 68 53 56 S9 30.38S Montauk N/A 66 60 81 SW5 30.40S $$ NYZ052-065-067-222100- HUDSON VALLEY CITY SKY/WX TMP DP RH WIND PRES REMARKS White Plains MOSUNNY 73 44 35 SE9 30.36S Larchmont Harb N/A 70 N/A N/A SE6 N/A Croton On Huds N/A 73 N/A N/A S7G15 N/A Newburgh MOSUNNY 75 45 33 S8 30.35F Montgomery SUNNY 75 44 33 S6 30.33S Poughkeepsie MOSUNNY 75 41 29 SW6 30.33S Albany PTSUNNY 73 47 39 S8 30.31F $$ NJZ001-105-106-008-010-013-015-019>022-104-222100- NEW JERSEY CITY SKY/WX TMP DP RH WIND PRES REMARKS Newark/Liberty PTSUNNY 73 50 44 VRB7 30.35F Teterboro MOSUNNY 79 42 26 S10 30.34S Caldwell SUNNY 75 50 41 S10 30.35S Somerville SUNNY 77 47 34 S7 30.32F Linden FAIR 74 49 41 SE6 30.35S Perth Amboy N/A 73 N/A N/A SE6 N/A Sussex SUNNY 75 42 30 S6 30.34S Andover N/A 74 45 35 SW9 30.35S Trenton SUNNY 74 46 36 S10 30.35S Millville SUNNY 76 55 48 SE7 30.35F Atlantic City SUNNY 72 43 35 SE6 30.37S Wrightstown SUNNY 74 49 39 S8 30.32 Toms River N/A 73 50 44 SE8 30.37S Belmar MOSUNNY 71 50 47 SE8 30.37 $$ PAZ047>061-062-071-222100- EASTERN PENNSYLVANIA CITY SKY/WX TMP DP RH WIND PRES REMARKS Philadelphia PTSUNNY 75 48 38 S7 30.34F Allentown SUNNY 76 45 33 S9 30.34S Scranton MOSUNNY 75 42 30 VRB7 30.31F $$ CTZ002-004>006-009-010-012-RIZ004-006-007-MAZ004-011-015-222100- SOUTHERN NEW ENGLAND IN CT CITY SKY/WX TMP DP RH WIND PRES REMARKS Bradley INTL PTSUNNY 74 46 36 SE5 30.35F Hartford MOSUNNY 77 44 30 S7 30.34F Danbury MOSUNNY 74 43 32 S8 30.37S Wtrbury/Oxford MOSUNNY 72 43 35 S9 30.38S Norwalk Harbor N/A 66 N/A N/A NE3 N/A Bridgeport MOSUNNY 71 54 54 S6 30.37S Meriden MOSUNNY 74 44 34 S12 30.36S New Haven PTSUNNY 73 49 42 S5 30.37S Chester FAIR 75 46 35 S8 30.38S Groton MOSUNNY 69 59 70 S5 30.37S Wilimantic PTSUNNY 78 43 28 S6 30.36S IN RI CITY SKY/WX TMP DP RH WIND PRES REMARKS Providence PTSUNNY 72 56 57 SE8 30.37S Block Island PTSUNNY 68 60 75 SW12 30.39S Westerly PTSUNNY 73 56 54 VRB6 30.38F IN MA CITY SKY/WX TMP DP RH WIND PRES REMARKS Boston PTSUNNY 62 56 80 NE10 30.39S Worcester MOSUNNY 74 38 27 S8 30.38S Westfield PTSUNNY 73 49 42 VRB5 30.35S Provincetown SUNNY 64 57 78 NE7 30.39S Nantucket SUNNY 64 62 93 SW7 30.39S $$ ANZ330-335-338-340-345-350-353-355-222100- COASTAL MARINE OBSERVATIONS STATION/POSITION TIME SKY/WX TEMP WIND PRES VSBY WAVE AIR SEA DIR/SP/G HT/PER (UTC) (F) (DEG/KT/KT) (MB) (MI) (FT/S) NY HARB ENTRANCE 1850 65 66 180/ 8/ 8 1028.0 2/ 8 20 S FIRE ISLAND 1850 65 65 200/ 6/ 8 1029.0 2/ 9 GREAT SOUTH BAY 1930 66 63 230/ 4/ 6 N/A 15 E BARNEGAT LI NOT AVBL HUDSON CANYON 1850 65 65 140/ 4/ 6 1028.5 2/ 9 KINGS POINT 1936 70 66 210/ 12/ 13 1028.8 EXECUTION ROCKS 1930 72 190/ 6/ 8 N/A WESTERN LI SOUND 1919 68 80/ 4/ 6 N/A 1 CENTRAL LI SOUND 1915 67 70/ 2/ 4 N/A 0 EASTERN LI SOUND NOT AVBL ROBBINS REEF 1948 68 170/ 9/ 12 1028.7 $$ >>>>>>>>>>>>>>>>>>>>>>>>>>>> KEY <<<<<<<<<<<<<<<<<<<<<<<<<<< > < > SKY/WX - Sky Condition/Present Weather < > TMP - Temperature in Fahrenheit < > DP - Dew Point in Fahrenheit < > RH - Relative Humidity in Percent < > WIND - Direction (from) and Speed in MPH < > PRES - Mean Sea Level Pressure (inches of Hg) < > WCI - Wind Chill Index < > VSB - VISIBILITY IN MILES < > HX - HEAT INDEX < > TC - TEMPERATURE IN CELSIUS < > VRB - VARIABLE WIND DIRECTION < > < >>>>>>>>>>>>>>>>>>>>>>>>>>>> KEY <<<<<<<<<<<<<<<<<<<<<<<<<<<

USA.gov is the U.S. government's official web portal to all federal, state and local government web resources and services.